| time (UTC) | temp F | wind direction | speed knots | gust knots | rain 1hr in | rain 24hr in | rain mn in | humidity % | barometer mb |
| 20260504045559 | 45 | 42 | 0.9 | 0.9 | 0.00 | 0.00 | 0.00 | 56 | 1013.7 |
| 20260504045054 | 45 | 45 | 0.9 | 0.9 | 0.00 | 0.00 | 0.00 | 56 | 1013.6 |
| 20260504044553 | 45 | 352 | 1.7 | 2.6 | 0.00 | 0.00 | 0.00 | 57 | 1013.5 |
| 20260504044049 | 45 | 60 | 0.9 | 0.9 | 0.00 | 0.00 | 0.00 | 56 | 1013.5 |
| 20260504043546 | 45 | 65 | 0.9 | 0.9 | 0.00 | 0.00 | 0.00 | 55 | 1013.6 |
| 20260504043044 | 46 | 10 | 1.7 | 2.6 | 0.00 | 0.00 | 0.00 | 56 | 1013.7 |
| 20260504042540 | 46 | 85 | 0.9 | 0.9 | 0.00 | 0.00 | 0.00 | 55 | 1013.6 |
| 20260504042038 | 46 | 49 | 0.9 | 0.9 | 0.00 | 0.00 | 0.00 | 55 | 1013.4 |
| 20260504041533 | 46 | 343 | 0.9 | 0.9 | 0.00 | 0.00 | 0.00 | 56 | 1013.6 |
| 20260504041029 | 45 | 351 | 0.9 | 0.9 | 0.00 | 0.00 | 0.00 | 56 | 1013.7 |
| 20260504040527 | 46 | 327 | 0.9 | 0.9 | 0.00 | 0.00 | 0.00 | 56 | 1013.7 |
| 20260504040024 | 46 | 348 | 1.7 | 2.6 | 0.00 | 0.00 | 0.00 | 55 | 1013.8 |
| 20260504035521 | 46 | 329 | 0.9 | 0.9 | 0.00 | 0.00 | 0.00 | 55 | 1013.6 |
| 20260504035017 | 46 | 47 | 0.9 | 0.9 | 0.00 | 0.00 | 0.00 | 56 | 1013.7 |
| 20260504034515 | 46 | 66 | 0.9 | 0.9 | 0.00 | 0.00 | 0.00 | 56 | 1013.5 |
| 20260504034011 | 46 | 105 | 0.0 | 0.0 | 0.00 | 0.00 | 0.00 | 54 | 1013.8 |
| 20260504033509 | 46 | 41 | 0.9 | 0.9 | 0.00 | 0.00 | 0.00 | 56 | 1013.6 |
| 20260504033007 | 46 | 55 | 0.9 | 0.9 | 0.00 | 0.00 | 0.00 | 55 | 1013.5 |
| 20260504032503 | 46 | 38 | 0.9 | 0.9 | 0.00 | 0.00 | 0.00 | 55 | 1013.6 |
| 20260504032000 | 46 | 77 | 0.9 | 0.9 | 0.00 | 0.00 | 0.00 | 55 | 1013.4 |
| 20260504031456 | 46 | 55 | 0.9 | 0.9 | 0.00 | 0.00 | 0.00 | 56 | 1013.6 |
| 20260504030953 | 47 | 105 | 0.0 | 0.0 | 0.00 | 0.00 | 0.00 | 53 | 1013.3 |
| 20260504030451 | 47 | 99 | 0.9 | 0.9 | 0.00 | 0.00 | 0.00 | 53 | 1013.4 |
| 20260504025946 | 47 | 72 | 0.9 | 0.9 | 0.00 | 0.00 | 0.00 | 53 | 1013.6 |
| 20260504025443 | 47 | 99 | 0.0 | 0.0 | 0.00 | 0.00 | 0.00 | 53 | 1013.5 |
| 20260504024940 | 48 | 126 | 0.0 | 0.0 | 0.00 | 0.00 | 0.00 | 51 | 1013.4 |
| 20260504024437 | 48 | 66 | 1.7 | 2.6 | 0.00 | 0.00 | 0.00 | 52 | 1013.1 |
| 20260504023934 | 48 | 86 | 0.0 | 0.9 | 0.00 | 0.00 | 0.00 | 51 | 1013.5 |
| 20260504023431 | 48 | 64 | 0.9 | 0.9 | 0.00 | 0.00 | 0.00 | 52 | 1013.5 |
| 20260504022926 | 47 | 338 | 0.9 | 0.9 | 0.00 | 0.00 | 0.00 | 52 | 1013.5 |
| 20260504022423 | 48 | 101 | 0.0 | 0.0 | 0.00 | 0.00 | 0.00 | 53 | 1013.5 |
| 20260504021920 | 48 | 76 | 0.9 | 0.9 | 0.00 | 0.00 | 0.00 | 53 | 1013.5 |
| 20260504021417 | 48 | 138 | 0.9 | 0.9 | 0.00 | 0.00 | 0.00 | 50 | 1013.5 |
| 20260504020914 | 50 | 141 | 0.0 | 0.0 | 0.00 | 0.00 | 0.00 | 50 | 1013.4 |
| 20260504020411 | 49 | 175 | 1.7 | 2.6 | 0.00 | 0.00 | 0.00 | 48 | 1013.5 |
| 20260504015907 | 49 | 129 | 0.0 | 0.0 | 0.00 | 0.00 | 0.00 | 49 | 1013.3 |
| 20260504015403 | 49 | 129 | 0.0 | 0.0 | 0.00 | 0.00 | 0.00 | 48 | 1013.5 |
| 20260504014900 | 50 | 123 | 0.0 | 0.0 | 0.00 | 0.00 | 0.00 | 49 | 1013.3 |
| 20260504014355 | 50 | 133 | 0.0 | 0.0 | 0.00 | 0.00 | 0.00 | 48 | 1013.3 |
| 20260504013853 | 51 | 148 | 0.9 | 0.9 | 0.00 | 0.00 | 0.00 | 45 | 1013.3 |
| 20260504013351 | 50 | 138 | 0.0 | 0.0 | 0.00 | 0.00 | 0.00 | 47 | 1013.4 |
| 20260504012847 | 51 | 148 | 0.0 | 0.0 | 0.00 | 0.00 | 0.00 | 45 | 1013.1 |
| 20260504012345 | 52 | 149 | 0.0 | 0.9 | 0.00 | 0.00 | 0.00 | 44 | 1013.3 |
| 20260504011842 | 52 | 151 | 0.9 | 0.9 | 0.00 | 0.00 | 0.00 | 43 | 1013.1 |
| 20260504011339 | 53 | 155 | 0.9 | 0.9 | 0.00 | 0.00 | 0.00 | 42 | 1012.9 |
| 20260504010835 | 53 | 155 | 0.0 | 0.9 | 0.00 | 0.00 | 0.00 | 42 | 1012.8 |
| 20260504010330 | 53 | 151 | 0.0 | 0.9 | 0.00 | 0.00 | 0.00 | 42 | 1013.1 |
| 20260504005827 | 53 | 145 | 0.9 | 0.9 | 0.00 | 0.00 | 0.00 | 42 | 1012.8 |
| 20260504005324 | 53 | 223 | 1.7 | 2.6 | 0.00 | 0.00 | 0.00 | 41 | 1012.8 |
| 20260504004822 | 54 | 141 | 0.0 | 0.0 | 0.00 | 0.00 | 0.00 | 42 | 1013.1 |
| 20260504004319 | 54 | 328 | 2.6 | 2.6 | 0.00 | 0.00 | 0.00 | 41 | 1012.9 |
| 20260504003815 | 54 | 177 | 1.7 | 2.6 | 0.00 | 0.00 | 0.00 | 41 | 1013.0 |
| 20260504003313 | 53 | 201 | 2.6 | 2.6 | 0.00 | 0.00 | 0.00 | 41 | 1012.9 |
| 20260504002809 | 54 | 169 | 0.9 | 0.9 | 0.00 | 0.00 | 0.00 | 40 | 1012.8 |
| 20260504002306 | 54 | 124 | 0.9 | 0.9 | 0.00 | 0.00 | 0.00 | 40 | 1012.7 |
| 20260504001804 | 54 | 183 | 2.6 | 3.5 | 0.00 | 0.00 | 0.00 | 40 | 1012.5 |
| 20260504001301 | 54 | 328 | 6.1 | 7.8 | 0.00 | 0.00 | 0.00 | 39 | 1012.6 |
| 20260504000758 | 54 | 144 | 0.0 | 0.0 | 0.00 | 0.00 | 0.00 | 40 | 1012.8 |
| 20260504000254 | 55 | 117 | 0.0 | 0.0 | 0.00 | 0.00 | 0.00 | 39 | 1012.6 |
| 20260503235752 | 55 | 187 | 3.5 | 3.5 | 0.00 | 0.00 | 0.00 | 38 | 1012.6 |
| 20260503235250 | 55 | 186 | 1.7 | 2.6 | 0.00 | 0.00 | 0.00 | 39 | 1012.8 |
| 20260503234747 | 55 | 135 | 0.0 | 0.9 | 0.00 | 0.00 | 0.00 | 38 | 1012.6 |
| 20260503234245 | 55 | 149 | 0.0 | 0.0 | 0.00 | 0.00 | 0.00 | 38 | 1012.6 |
| 20260503233742 | 55 | 142 | 0.0 | 0.0 | 0.00 | 0.00 | 0.00 | 39 | 1012.5 |
| 20260503233238 | 56 | 176 | 0.9 | 2.6 | 0.00 | 0.00 | 0.00 | 37 | 1012.6 |
| 20260503232735 | 56 | 161 | 0.9 | 0.9 | 0.00 | 0.00 | 0.00 | 38 | 1012.7 |
| 20260503232232 | 56 | 170 | 0.9 | 0.9 | 0.00 | 0.00 | 0.00 | 37 | 1012.5 |
| 20260503231730 | 56 | 208 | 1.7 | 2.6 | 0.00 | 0.00 | 0.00 | 38 | 1012.4 |
| 20260503231226 | 57 | 202 | 2.6 | 3.5 | 0.00 | 0.00 | 0.00 | 36 | 1012.6 |
| 20260503230722 | 57 | 204 | 4.3 | 7.8 | 0.00 | 0.00 | 0.00 | 36 | 1012.6 |
| 20260503230220 | 58 | 183 | 1.7 | 2.6 | 0.00 | 0.00 | 0.00 | 35 | 1012.5 |
| 20260503225717 | 58 | 224 | 3.5 | 3.5 | 0.00 | 0.00 | 0.00 | 34 | 1012.3 |
| 20260503225217 | 58 | 186 | 2.6 | 3.5 | 0.00 | 0.00 | 0.00 | 37 | 1012.4 |
| 20260503224715 | 58 | 273 | 2.6 | 3.5 | 0.00 | 0.00 | 0.00 | 36 | 1012.3 |
| 20260503224213 | 59 | 191 | 0.9 | 0.9 | 0.00 | 0.00 | 0.00 | 35 | 1012.4 |
| 20260503223710 | 59 | 172 | 4.3 | 5.2 | 0.00 | 0.00 | 0.00 | 35 | 1012.4 |
| 20260503223207 | 58 | 190 | 2.6 | 2.6 | 0.00 | 0.00 | 0.00 | 35 | 1012.4 |
| 20260503222704 | 57 | 154 | 0.0 | 0.9 | 0.00 | 0.00 | 0.00 | 35 | 1012.4 |
| 20260503222201 | 57 | 11 | 2.6 | 3.5 | 0.00 | 0.00 | 0.00 | 37 | 1012.6 |
| 20260503221700 | 57 | 148 | 0.9 | 0.9 | 0.00 | 0.00 | 0.00 | 35 | 1012.6 |
| 20260503221157 | 57 | 210 | 5.2 | 6.1 | 0.00 | 0.00 | 0.00 | 36 | 1012.5 |
| 20260503220653 | 57 | 299 | 2.6 | 3.5 | 0.00 | 0.00 | 0.00 | 35 | 1012.6 |
| 20260503220150 | 57 | 205 | 4.3 | 6.1 | 0.00 | 0.00 | 0.00 | 35 | 1012.8 |
| 20260503215647 | 58 | 358 | 4.3 | 5.2 | 0.00 | 0.00 | 0.00 | 34 | 1012.7 |
| 20260503215143 | 57 | 240 | 0.9 | 2.6 | 0.00 | 0.00 | 0.00 | 36 | 1012.8 |
| 20260503214643 | 57 | 294 | 6.1 | 8.7 | 0.00 | 0.00 | 0.00 | 36 | 1012.8 |
| 20260503214138 | 57 | 211 | 4.3 | 6.1 | 0.00 | 0.00 | 0.00 | 35 | 1012.7 |
| 20260503213632 | 57 | 266 | 2.6 | 3.5 | 0.00 | 0.00 | 0.00 | 35 | 1012.9 |
| 20260503213128 | 57 | 359 | 2.6 | 5.2 | 0.00 | 0.00 | 0.00 | 35 | 1012.8 |
| 20260503212625 | 57 | 174 | 1.7 | 2.6 | 0.00 | 0.00 | 0.00 | 35 | 1012.6 |
| 20260503212123 | 58 | 195 | 3.5 | 3.5 | 0.00 | 0.00 | 0.00 | 34 | 1012.6 |
| 20260503211620 | 59 | 208 | 2.6 | 3.5 | 0.00 | 0.00 | 0.00 | 34 | 1012.6 |
| 20260503211116 | 60 | 151 | 2.6 | 2.6 | 0.00 | 0.00 | 0.00 | 33 | 1012.7 |
| 20260503210613 | 59 | 54 | 1.7 | 2.6 | 0.00 | 0.00 | 0.00 | 33 | 1012.5 |
| 20260503210109 | 58 | 193 | 2.6 | 3.5 | 0.00 | 0.00 | 0.00 | 34 | 1012.6 |
| 20260503205605 | 60 | 189 | 2.6 | 3.5 | 0.00 | 0.00 | 0.00 | 34 | 1012.4 |
| 20260503205101 | 60 | 150 | 2.6 | 3.5 | 0.00 | 0.00 | 0.00 | 32 | 1012.7 |
| 20260503204558 | 61 | 286 | 5.2 | 7.8 | 0.00 | 0.00 | 0.00 | 32 | 1012.6 |
| 20260503204055 | 60 | 199 | 4.3 | 5.2 | 0.00 | 0.00 | 0.00 | 31 | 1012.7 |
| 20260503203552 | 59 | 152 | 0.9 | 0.9 | 0.00 | 0.00 | 0.00 | 33 | 1012.7 |
| 20260503203049 | 59 | 147 | 0.9 | 0.9 | 0.00 | 0.00 | 0.00 | 33 | 1012.7 |
| 20260503202547 | 59 | 223 | 4.3 | 6.1 | 0.00 | 0.00 | 0.00 | 34 | 1012.6 |
| 20260503202045 | 59 | 214 | 4.3 | 5.2 | 0.00 | 0.00 | 0.00 | 34 | 1012.7 |
| 20260503201543 | 59 | 264 | 4.3 | 6.1 | 0.00 | 0.00 | 0.00 | 33 | 1012.7 |
| 20260503201040 | 61 | 304 | 2.6 | 3.5 | 0.00 | 0.00 | 0.00 | 31 | 1012.8 |
| 20260503200536 | 60 | 199 | 3.5 | 5.2 | 0.00 | 0.00 | 0.00 | 34 | 1012.7 |
| 20260503200033 | 59 | 277 | 6.1 | 8.7 | 0.00 | 0.00 | 0.00 | 34 | 1013.0 |
| 20260503195530 | 59 | 211 | 2.6 | 2.6 | 0.00 | 0.00 | 0.00 | 32 | 1012.9 |
| 20260503195027 | 61 | 326 | 6.1 | 9.6 | 0.00 | 0.00 | 0.00 | 32 | 1012.9 |
| 20260503194525 | 59 | 229 | 5.2 | 6.1 | 0.00 | 0.00 | 0.00 | 33 | 1013.3 |
| 20260503194024 | 59 | 316 | 4.3 | 5.2 | 0.00 | 0.00 | 0.00 | 33 | 1013.3 |
| 20260503193521 | 59 | 221 | 3.5 | 3.5 | 0.00 | 0.00 | 0.00 | 33 | 1013.3 |
| 20260503193016 | 58 | 164 | 1.7 | 2.6 | 0.00 | 0.00 | 0.00 | 34 | 1013.3 |
| 20260503192512 | 58 | 208 | 0.9 | 0.9 | 0.00 | 0.00 | 0.00 | 35 | 1013.1 |
| 20260503192008 | 59 | 148 | 0.9 | 0.9 | 0.00 | 0.00 | 0.00 | 34 | 1013.4 |
| 20260503191506 | 61 | 228 | 3.5 | 5.2 | 0.00 | 0.00 | 0.00 | 32 | 1013.4 |
| 20260503191002 | 60 | 295 | 2.6 | 3.5 | 0.00 | 0.00 | 0.00 | 34 | 1013.4 |
| 20260503190459 | 58 | 175 | 4.3 | 5.2 | 0.00 | 0.00 | 0.00 | 35 | 1013.5 |
| 20260503185956 | 59 | 278 | 6.1 | 8.7 | 0.00 | 0.00 | 0.00 | 33 | 1013.9 |
| 20260503185452 | 57 | 234 | 2.6 | 2.6 | 0.00 | 0.00 | 0.00 | 35 | 1013.7 |
| 20260503184952 | 58 | 127 | 1.7 | 2.6 | 0.00 | 0.00 | 0.00 | 35 | 1013.6 |
| 20260503184448 | 58 | 218 | 3.5 | 5.2 | 0.00 | 0.00 | 0.00 | 35 | 1014.0 |
| 20260503183945 | 58 | 218 | 3.5 | 5.2 | 0.00 | 0.00 | 0.00 | 35 | 1014.1 |
| 20260503183442 | 58 | 211 | 2.6 | 5.2 | 0.00 | 0.00 | 0.00 | 35 | 1013.8 |
| 20260503182938 | 59 | 88 | 3.5 | 5.2 | 0.00 | 0.00 | 0.00 | 37 | 1014.0 |
| 20260503182437 | 58 | 124 | 1.7 | 2.6 | 0.00 | 0.00 | 0.00 | 36 | 1013.8 |
| 20260503181934 | 57 | 355 | 7.0 | 8.7 | 0.00 | 0.00 | 0.00 | 35 | 1013.8 |
| 20260503181431 | 57 | 164 | 6.1 | 7.8 | 0.00 | 0.00 | 0.00 | 36 | 1014.1 |
| 20260503180927 | 58 | 100 | 2.6 | 2.6 | 0.00 | 0.00 | 0.00 | 37 | 1014.2 |
| 20260503180427 | 56 | 229 | 2.6 | 3.5 | 0.00 | 0.00 | 0.00 | 36 | 1014.2 |
| 20260503175922 | 57 | 140 | 0.0 | 0.9 | 0.00 | 0.00 | 0.00 | 37 | 1014.1 |
| 20260503175421 | 56 | 336 | 4.3 | 6.1 | 0.00 | 0.00 | 0.00 | 36 | 1014.1 |
| 20260503174916 | 58 | 284 | 6.1 | 8.7 | 0.00 | 0.00 | 0.00 | 35 | 1014.4 |
| 20260503174414 | 57 | 340 | 3.5 | 3.5 | 0.00 | 0.00 | 0.00 | 37 | 1014.1 |
| 20260503173909 | 56 | 304 | 2.6 | 5.2 | 0.00 | 0.00 | 0.00 | 36 | 1014.2 |
| 20260503173405 | 54 | 16 | 1.7 | 2.6 | 0.00 | 0.00 | 0.00 | 38 | 1014.4 |
| 20260503172902 | 55 | 187 | 2.6 | 3.5 | 0.00 | 0.00 | 0.00 | 38 | 1014.5 |
| 20260503172400 | 56 | 279 | 4.3 | 6.1 | 0.00 | 0.00 | 0.00 | 36 | 1014.4 |
| 20260503171855 | 55 | 308 | 5.2 | 6.1 | 0.00 | 0.00 | 0.00 | 37 | 1014.7 |
| 20260503171352 | 55 | 98 | 0.9 | 2.6 | 0.00 | 0.00 | 0.00 | 39 | 1014.4 |
| 20260503170850 | 55 | 314 | 6.1 | 8.7 | 0.00 | 0.00 | 0.00 | 37 | 1014.4 |
| 20260503170346 | 55 | 312 | 4.3 | 6.1 | 0.00 | 0.00 | 0.00 | 38 | 1014.4 |
| 20260503150738 | 51 | 259 | 4.3 | 6.1 | 0.00 | 0.00 | 0.00 | 39 | 1015.8 |
| 20260503150234 | 49 | 314 | 7.0 | 9.6 | 0.00 | 0.00 | 0.00 | 40 | 1015.6 |
| 20260503140159 | 48 | 86 | 2.6 | 3.5 | 0.00 | 0.00 | 0.00 | 47 | 1015.7 |
| 20260503131128 | 46 | 197 | 2.6 | 2.6 | 0.00 | 0.00 | 0.00 | 53 | 1016.2 |
| 20260503130626 | 45 | 179 | 1.7 | 2.6 | 0.00 | 0.00 | 0.00 | 55 | 1015.9 |
| 20260503130124 | 45 | 102 | 0.0 | 0.9 | 0.00 | 0.00 | 0.00 | 55 | 1016.0 |
| 20260503110516 | 35 | 119 | 0.0 | 0.0 | 0.00 | 0.00 | 0.00 | 73 | 1015.3 |
| 20260503090408 | 34 | 103 | 0.0 | 0.0 | 0.00 | 0.00 | 0.00 | 73 | 1014.7 |
| 20260503081335 | 34 | 102 | 0.0 | 0.9 | 0.00 | 0.00 | 0.00 | 71 | 1014.6 |
| 20260503080832 | 34 | 122 | 0.0 | 0.0 | 0.00 | 0.00 | 0.00 | 70 | 1014.4 |
| 20260503080329 | 35 | 126 | 0.0 | 0.0 | 0.00 | 0.00 | 0.00 | 68 | 1014.3 |
| 20260503072805 | 36 | 123 | 0.0 | 0.0 | 0.00 | 0.00 | 0.00 | 67 | 1014.2 |
| 20260503072305 | 36 | 115 | 0.0 | 0.0 | 0.00 | 0.00 | 0.00 | 65 | 1014.2 |
| 20260503071758 | 37 | 115 | 0.0 | 0.0 | 0.00 | 0.00 | 0.00 | 66 | 1014.1 |
| 20260503071255 | 37 | 111 | 0.0 | 0.0 | 0.00 | 0.00 | 0.00 | 64 | 1014.2 |
| 20260503070751 | 37 | 173 | 0.9 | 0.9 | 0.00 | 0.00 | 0.00 | 65 | 1014.0 |
| 20260503070250 | 37 | 123 | 0.0 | 0.9 | 0.00 | 0.00 | 0.00 | 65 | 1014.0 |
| 20260503060215 | 39 | 50 | 0.9 | 0.9 | 0.00 | 0.00 | 0.00 | 64 | 1014.0 |
| 20260503054701 | 39 | 296 | 2.6 | 3.5 | 0.00 | 0.00 | 0.00 | 63 | 1013.8 |
| 20260503054159 | 39 | 261 | 0.9 | 0.9 | 0.00 | 0.00 | 0.00 | 63 | 1013.9 |
| 20260503053656 | 39 | 239 | 1.7 | 2.6 | 0.00 | 0.00 | 0.00 | 63 | 1014.0 |
| 20260503053155 | 40 | 146 | 0.0 | 0.0 | 0.00 | 0.00 | 0.00 | 62 | 1014.1 |
| 20260503052651 | 40 | 79 | 0.9 | 0.9 | 0.00 | 0.00 | 0.00 | 62 | 1014.0 |
| 20260503052147 | 40 | 32 | 0.0 | 0.9 | 0.00 | 0.00 | 0.00 | 61 | 1013.9 |
| 20260503051643 | 40 | 123 | 0.0 | 0.0 | 0.00 | 0.00 | 0.00 | 62 | 1014.0 |
| 20260503051141 | 41 | 326 | 0.0 | 0.9 | 0.00 | 0.00 | 0.00 | 61 | 1014.0 |
| 20260503050637 | 41 | 83 | 0.9 | 0.9 | 0.00 | 0.00 | 0.00 | 61 | 1014.3 |
| 20260503050134 | 41 | 75 | 0.9 | 0.9 | 0.00 | 0.00 | 0.00 | 61 | 1014.3 |